Tracking 21094 objects as of 12-Aug-2020
HD Live streaming from Space Station
objects crossing your sky now
Track the most recent launched group of Starlink satellites

LANDSAT 3

Track LANDSAT 3 now!
10-day predictions
LANDSAT 3 is classified as:


NORAD ID: 10702
Int'l Code: 1978-026A
Perigee: 902.6 km
Apogee: 922.3 km
Inclination: 98.8 °
Period: 103.1 minutes
Semi major axis: 7283 km
RCS: 3.0427 m2 (large)
Launch date: March 5, 1978
Source: United States (US)
Launch site: AIR FORCE WESTERN TEST RANGE (AFWTR)
aabbcc
Your satellite tracking list
Your tracking list is empty




NASA's NSSDC Master Catalog

Two Line Element Set (TLE):
1 10702U 78026A   20224.97467689  .00000156  00000-0  14212-3 0  9994
2 10702  98.7713 213.6878 0013513 268.0497 148.6329 13.96687090163676
Source of the keplerian elements: AFSPC